"read_dt","SO2 (ppb)","flags","PMT voltage (V)","lamp voltage (V)","lamp intensity (Hz)","internal temp (C)","react chamber temp (C)","sample flow (l/min)","pres (mmHg)","SO2 bkg (ppb)","SO2 coefficient"
2016-06-25 00:00:00,2154E-3,5C000400,-0724,0828,12146,030.4,045.5,0.250,753.8,01.17,0.508
2016-06-25 00:01:00,2028E-3,5C000400,-0724,0828,12209,030.3,045.5,0.250,753.8,01.17,0.508
2016-06-25 00:02:00,2157E-3,5C000400,-0724,0828,12338,030.3,045.5,0.251,753.8,01.17,0.508
2016-06-25 00:03:00,2303E-3,5C000400,-0724,0829,12188,030.3,045.5,0.250,753.8,01.17,0.508
2016-06-25 00:04:00,2164E-3,5C000400,-0724,0829,12119,030.3,045.5,0.250,753.9,01.17,0.508
2016-06-25 00:05:00,2006E-3,5C000400,-0724,0828,12216,030.3,045.5,0.251,753.8,01.17,0.508
2016-06-25 00:06:00,2150E-3,5C000400,-0724,0829,12182,030.3,045.5,0.251,753.8,01.17,0.508
2016-06-25 00:07:00,2039E-3,5C000400,-0724,0828,12190,030.4,045.5,0.250,753.9,01.17,0.508
2016-06-25 00:08:00,2212E-3,5C000400,-0724,0828,12265,030.4,045.5,0.250,753.8,01.17,0.508
2016-06-25 00:09:00,2148E-3,5C000400,-0724,0828,12105,030.3,045.5,0.251,753.8,01.17,0.508
2016-06-25 00:10:00,2019E-3,5C000400,-0724,0829,12238,030.3,045.5,0.251,753.8,01.17,0.508
2016-06-25 00:11:00,2127E-3,5C000400,-0724,0829,12149,030.3,045.5,0.250,753.9,01.17,0.508
2016-06-25 00:12:00,1968E-3,5C000400,-0724,0829,12321,030.3,045.5,0.251,753.8,01.17,0.508
2016-06-25 00:13:00,2141E-3,5C000400,-0724,0828,12200,030.3,045.5,0.251,753.8,01.17,0.508
2016-06-25 00:14:00,2141E-3,5C000400,-0724,0828,12175,030.4,045.5,0.250,753.8,01.17,0.508
2016-06-25 00:15:00,2117E-3,5C000400,-0724,0828,12102,030.4,045.5,0.251,753.8,01.17,0.508
2016-06-25 00:16:00,2123E-3,5C000400,-0724,0828,12257,030.3,045.5,0.251,753.8,01.17,0.508
2016-06-25 00:17:00,2068E-3,5C000400,-0724,0828,12230,030.4,045.5,0.250,753.8,01.17,0.508
2016-06-25 00:18:00,2162E-3,5C000400,-0724,0829,12166,030.3,045.5,0.251,753.8,01.17,0.508
2016-06-25 00:19:00,2044E-3,5C000400,-0724,0828,12126,030.3,045.5,0.251,753.8,01.17,0.508
2016-06-25 00:20:00,2183E-3,5C000400,-0724,0829,12305,030.2,045.5,0.251,753.8,01.17,0.508
2016-06-25 00:21:00,2110E-3,5C000400,-0724,0828,11174,030.2,045.5,0.250,753.8,01.17,0.508
2016-06-25 00:22:00,2136E-3,5C000400,-0724,0827,12116,030.2,045.5,0.251,753.8,01.17,0.508
2016-06-25 00:23:00,2082E-3,5C000400,-0724,0827,12098,030.2,045.5,0.251,753.8,01.17,0.508
2016-06-25 00:24:00,2239E-3,5C000400,-0724,0828,12150,030.2,045.5,0.251,753.8,01.17,0.508
2016-06-25 00:25:00,1936E-3,5C000400,-0724,0827,12346,030.2,045.5,0.250,753.9,01.17,0.508
2016-06-25 00:26:00,2079E-3,5C000400,-0724,0828,12196,030.2,045.5,0.251,753.9,01.17,0.508
2016-06-25 00:27:00,2057E-3,5C000400,-0724,0828,12147,030.2,045.5,0.251,753.9,01.17,0.508
2016-06-25 00:28:00,2154E-3,5C000400,-0724,0829,12230,030.2,045.5,0.251,753.8,01.17,0.508
2016-06-25 00:29:00,2144E-3,5C000400,-0724,0828,12251,030.1,045.5,0.251,753.8,01.17,0.508
2016-06-25 00:30:00,2108E-3,5C000400,-0724,0828,12221,030.2,045.5,0.251,753.9,01.17,0.508
2016-06-25 00:31:00,2087E-3,5C000400,-0724,0828,12157,030.2,045.5,0.251,753.9,01.17,0.508
2016-06-25 00:32:00,2046E-3,5C000400,-0724,0828,12120,030.3,045.5,0.250,753.9,01.17,0.508
2016-06-25 00:33:00,2166E-3,5C000400,-0724,0828,12186,030.2,045.5,0.251,753.9,01.17,0.508
2016-06-25 00:34:00,2151E-3,5C000400,-0724,0828,12073,030.2,045.5,0.251,753.9,01.17,0.508
2016-06-25 00:35:00,2101E-3,5C000400,-0724,0828,12218,030.2,045.5,0.251,753.9,01.17,0.508
2016-06-25 00:36:00,1914E-3,5C000400,-0724,0828,12169,030.1,045.5,0.251,753.9,01.17,0.508
2016-06-25 00:37:00,2274E-3,5C000400,-0724,0828,12204,030.2,045.5,0.251,753.9,01.17,0.508
2016-06-25 00:38:00,2114E-3,5C000400,-0724,0828,12211,030.1,045.5,0.251,753.9,01.17,0.508
2016-06-25 00:39:00,2078E-3,5C000400,-0724,0828,12203,030.1,045.5,0.251,753.9,01.17,0.508
2016-06-25 00:40:00,2240E-3,5C000400,-0724,0828,12195,030.2,045.5,0.251,753.9,01.17,0.508
2016-06-25 00:41:00,2079E-3,5C000400,-0724,0828,12199,030.2,045.5,0.251,753.9,01.17,0.508
2016-06-25 00:42:00,2186E-3,5C000400,-0724,0829,12343,030.2,045.5,0.251,754.0,01.17,0.508
2016-06-25 00:43:00,2097E-3,5C000400,-0724,0828,12317,030.2,045.5,0.250,753.9,01.17,0.508
2016-06-25 00:44:00,2056E-3,5C000400,-0724,0829,12061,030.2,045.5,0.251,754.0,01.17,0.508
2016-06-25 00:45:00,2016E-3,5C000400,-0724,0829,12319,030.2,045.5,0.251,754.0,01.17,0.508
2016-06-25 00:46:00,2212E-3,5C000400,-0724,0828,12083,030.1,045.5,0.251,754.0,01.17,0.508
2016-06-25 00:47:00,2095E-3,5C000400,-0724,0828,12139,030.1,045.5,0.251,754.0,01.17,0.508
2016-06-25 00:48:00,2017E-3,5C000400,-0724,0828,12181,030.1,045.5,0.251,754.0,01.17,0.508
2016-06-25 00:49:00,2090E-3,5C000400,-0724,0828,12259,030.2,045.5,0.251,754.0,01.17,0.508
2016-06-25 00:50:00,2053E-3,5C000400,-0724,0828,12245,030.2,045.5,0.250,753.9,01.17,0.508
2016-06-25 00:51:00,2073E-3,5C000400,-0724,0829,12234,030.2,045.5,0.251,754.0,01.17,0.508
2016-06-25 00:52:00,2105E-3,5C000400,-0724,0828,12210,030.2,045.5,0.251,754.0,01.17,0.508
2016-06-25 00:53:00,2191E-3,5C000400,-0724,0829,12232,030.1,045.5,0.251,754.0,01.17,0.508
2016-06-25 00:54:00,2255E-3,5C000400,-0724,0828,12309,030.1,045.5,0.251,754.0,01.17,0.508
2016-06-25 00:55:00,1978E-3,5C000400,-0724,0829,12213,030.1,045.5,0.251,754.0,01.17,0.508
2016-06-25 00:56:00,2167E-3,5C000400,-0724,0828,12171,030.0,045.5,0.251,754.0,01.17,0.508
2016-06-25 00:57:00,2028E-3,5C000400,-0724,0828,12314,030.0,045.5,0.251,754.0,01.17,0.508
2016-06-25 00:58:00,2106E-3,5C000400,-0724,0828,12262,030.1,045.5,0.251,754.0,01.17,0.508
2016-06-25 00:59:00,2213E-3,5C000400,-0724,0829,12127,030.0,045.5,0.251,754.1,01.17,0.508
2016-06-25 01:00:00,2230E-3,5C000400,-0724,0828,12186,030.0,045.5,0.251,754.1,01.17,0.508
2016-06-25 01:01:00,1997E-3,5C000400,-0724,0828,12312,030.0,045.5,0.251,754.1,01.17,0.508
2016-06-25 01:02:00,2181E-3,5C000400,-0724,0828,12325,030.0,045.5,0.251,754.2,01.17,0.508
2016-06-25 01:03:00,2066E-3,5C000400,-0724,0828,12287,030.0,045.5,0.251,754.2,01.17,0.508
2016-06-25 01:04:00,2174E-3,5C000400,-0724,0828,12106,030.0,045.5,0.251,754.2,01.17,0.508
2016-06-25 01:05:00,2160E-3,5C000400,-0724,0828,12037,030.0,045.5,0.251,754.2,01.17,0.508
2016-06-25 01:06:00,2027E-3,5C000400,-0724,0827,12250,029.9,045.5,0.251,754.2,01.17,0.508
2016-06-25 01:07:00,2057E-3,5C000400,-0724,0827,12196,030.0,045.5,0.251,754.2,01.17,0.508
2016-06-25 01:08:00,2202E-3,5C000400,-0724,0828,12111,030.0,045.5,0.251,754.2,01.17,0.508
2016-06-25 01:09:00,2057E-3,5C000400,-0724,0829,12257,030.0,045.5,0.251,754.2,01.17,0.508
2016-06-25 01:10:00,2049E-3,5C000400,-0724,0828,12273,030.0,045.5,0.251,754.2,01.17,0.508
2016-06-25 01:11:00,2021E-3,5C000400,-0724,0829,12271,029.9,045.5,0.251,754.3,01.17,0.508
2016-06-25 01:12:00,2098E-3,5C000400,-0724,0829,12240,029.9,045.5,0.251,754.3,01.17,0.508
2016-06-25 01:13:00,2242E-3,5C000400,-0724,0827,12235,029.9,045.5,0.251,754.3,01.17,0.508
2016-06-25 01:14:00,2105E-3,5C000400,-0724,0828,12144,029.9,045.5,0.251,754.2,01.17,0.508
2016-06-25 01:15:00,2135E-3,5C000400,-0724,0828,12243,029.9,045.5,0.251,754.2,01.17,0.508
2016-06-25 01:16:00,2150E-3,5C000400,-0724,0828,12207,029.9,045.5,0.251,754.3,01.17,0.508
2016-06-25 01:17:00,2187E-3,5C000400,-0724,0828,12157,029.9,045.5,0.251,754.3,01.17,0.508
2016-06-25 01:18:00,2174E-3,5C000400,-0724,0828,12063,029.9,045.5,0.251,754.3,01.17,0.508
2016-06-25 01:19:00,2091E-3,5C000400,-0724,0829,12257,029.9,045.5,0.251,754.2,01.17,0.508
2016-06-25 01:20:00,2157E-3,5C000400,-0724,0828,12178,030.0,045.5,0.251,754.3,01.17,0.508
2016-06-25 01:21:00,2041E-3,5C000400,-0724,0828,12137,029.9,045.5,0.251,754.3,01.17,0.508
2016-06-25 01:22:00,2194E-3,5C000400,-0724,0827,12228,029.9,045.5,0.251,754.3,01.17,0.508
2016-06-25 01:23:00,2169E-3,5C000400,-0724,0828,12183,029.9,045.5,0.251,754.3,01.17,0.508
2016-06-25 01:24:00,2133E-3,5C000400,-0724,0829,12236,029.9,045.5,0.251,754.3,01.17,0.508
2016-06-25 01:25:00,1989E-3,5C000400,-0724,0828,12115,029.9,045.5,0.251,754.3,01.17,0.508
2016-06-25 01:26:00,2118E-3,5C000400,-0724,0828,12254,029.9,045.5,0.251,754.3,01.17,0.508
2016-06-25 01:27:00,2185E-3,5C000400,-0724,0827,12221,029.9,045.5,0.251,754.3,01.17,0.508
2016-06-25 01:28:00,2070E-3,5C000400,-0724,0827,12200,029.8,045.5,0.251,754.3,01.17,0.508
2016-06-25 01:29:00,2028E-3,5C000400,-0724,0828,12283,029.8,045.5,0.251,754.3,01.17,0.508
2016-06-25 01:30:00,2153E-3,5C000400,-0724,0828,12200,029.8,045.5,0.251,754.4,01.17,0.508
2016-06-25 01:31:00,1994E-3,5C000400,-0724,0828,12197,029.8,045.5,0.251,754.4,01.17,0.508
2016-06-25 01:32:00,2158E-3,5C000400,-0724,0828,12188,029.9,045.5,0.251,754.4,01.17,0.508
2016-06-25 01:33:00,2081E-3,5C000400,-0724,0828,12232,029.8,045.5,0.252,754.4,01.17,0.508
2016-06-25 01:34:00,2201E-3,5C000400,-0724,0828,12171,029.8,045.5,0.251,754.4,01.17,0.508
2016-06-25 01:35:00,2092E-3,5C000400,-0724,0828,12121,029.8,045.5,0.251,754.4,01.17,0.508
2016-06-25 01:36:00,2235E-3,5C000400,-0724,0828,12187,029.8,045.5,0.251,754.4,01.17,0.508
2016-06-25 01:37:00,2088E-3,5C000400,-0724,0827,12237,029.8,045.5,0.252,754.4,01.17,0.508
2016-06-25 01:38:00,2115E-3,5C000400,-0724,0827,11988,029.8,045.5,0.251,754.4,01.17,0.508
2016-06-25 01:39:00,2115E-3,5C000400,-0724,0827,12260,029.8,045.5,0.251,754.4,01.17,0.508
2016-06-25 01:40:00,2016E-3,5C000400,-0724,0828,12238,029.8,045.5,0.251,754.4,01.17,0.508
2016-06-25 01:41:00,1907E-3,5C000400,-0724,0829,12397,029.8,045.5,0.252,754.4,01.17,0.508
2016-06-25 01:42:00,2115E-3,5C000400,-0724,0828,12089,029.8,045.5,0.252,754.4,01.17,0.508
2016-06-25 01:43:00,2209E-3,5C000400,-0724,0828,12191,029.8,045.5,0.251,754.4,01.17,0.508
2016-06-25 01:44:00,2101E-3,5C000400,-0724,0829,12160,029.8,045.5,0.251,754.4,01.17,0.508
2016-06-25 01:45:00,2054E-3,5C000400,-0724,0828,12244,029.8,045.5,0.252,754.4,01.17,0.508
2016-06-25 01:46:00,2022E-3,5C000400,-0724,0828,12170,029.8,045.5,0.252,754.4,01.17,0.508
2016-06-25 01:47:00,2192E-3,5C000400,-0724,0828,12302,029.8,045.5,0.251,754.5,01.17,0.508
2016-06-25 01:48:00,2210E-3,5C000400,-0724,0829,12319,029.7,045.5,0.251,754.5,01.17,0.508
2016-06-25 01:49:00,2119E-3,5C000400,-0724,0828,12147,029.7,045.5,0.252,754.5,01.17,0.508
2016-06-25 01:50:00,2217E-3,5C000400,-0724,0828,12200,029.7,045.5,0.252,754.5,01.17,0.508
2016-06-25 01:51:00,2135E-3,5C000400,-0724,0828,12199,029.7,045.5,0.252,754.5,01.17,0.508
2016-06-25 01:52:00,2033E-3,5C000400,-0724,0829,12218,029.7,045.5,0.251,754.6,01.17,0.508
2016-06-25 01:53:00,2099E-3,5C000400,-0724,0828,12243,029.7,045.5,0.252,754.5,01.17,0.508
2016-06-25 01:54:00,2045E-3,5C000400,-0724,0828,12193,029.7,045.5,0.252,754.6,01.17,0.508
2016-06-25 01:55:00,2017E-3,5C000400,-0724,0828,12136,029.7,045.5,0.252,754.5,01.17,0.508
2016-06-25 01:56:00,2299E-3,5C000400,-0724,0828,12214,029.7,045.5,0.252,754.5,01.17,0.508
2016-06-25 01:57:00,1985E-3,5C000400,-0724,0829,12231,029.6,045.5,0.252,754.5,01.17,0.508
2016-06-25 01:58:00,2166E-3,5C000400,-0724,0827,12145,029.7,045.5,0.252,754.5,01.17,0.508
2016-06-25 01:59:00,2087E-3,5C000400,-0724,0828,12176,029.7,045.5,0.252,754.5,01.17,0.508
2016-06-25 02:00:00,2070E-3,5C000400,-0724,0828,12300,029.7,045.5,0.252,754.5,01.17,0.508
2016-06-25 02:01:00,1990E-3,5C000400,-0724,0828,12175,029.7,045.5,0.252,754.5,01.17,0.508
2016-06-25 02:02:00,2166E-3,5C000400,-0724,0828,12253,029.7,045.5,0.251,754.5,01.17,0.508
2016-06-25 02:03:00,2126E-3,5C000400,-0724,0828,12271,029.7,045.5,0.252,754.5,01.17,0.508
2016-06-25 02:04:00,2169E-3,5C000400,-0724,0829,12305,029.6,045.5,0.252,754.5,01.17,0.508
2016-06-25 02:05:00,2081E-3,5C000400,-0724,0828,12351,029.6,045.5,0.252,754.5,01.17,0.508
2016-06-25 02:06:00,2071E-3,5C000400,-0724,0828,12300,029.7,045.5,0.252,754.5,01.17,0.508
2016-06-25 02:07:00,2107E-3,5C000400,-0724,0828,12256,029.7,045.5,0.251,754.6,01.17,0.508
2016-06-25 02:08:00,2127E-3,5C000400,-0724,0828,12271,029.7,045.5,0.252,754.5,01.17,0.508
2016-06-25 02:09:00,2186E-3,5C000400,-0724,0828,12294,029.6,045.5,0.252,754.6,01.17,0.508
2016-06-25 02:10:00,2237E-3,5C000400,-0724,0828,12299,029.6,045.5,0.252,754.6,01.17,0.508
2016-06-25 02:11:00,1995E-3,5C000400,-0724,0828,12316,029.6,045.5,0.251,754.6,01.17,0.508
2016-06-25 02:12:00,1961E-3,5C000400,-0724,0827,12262,029.6,045.5,0.252,754.6,01.17,0.508
2016-06-25 02:13:00,2192E-3,5C000400,-0724,0828,12317,029.6,045.5,0.252,754.6,01.17,0.508
2016-06-25 02:14:00,2137E-3,5C000400,-0724,0828,12186,029.6,045.5,0.252,754.5,01.17,0.508
2016-06-25 02:15:00,2036E-3,5C000400,-0724,0829,12270,029.6,045.5,0.252,754.6,01.17,0.508
2016-06-25 02:16:00,2081E-3,5C000400,-0724,0828,12209,029.6,045.5,0.251,754.5,01.17,0.508
2016-06-25 02:17:00,2045E-3,5C000400,-0724,0827,12336,029.6,045.5,0.252,754.6,01.17,0.508
2016-06-25 02:18:00,2176E-3,5C000400,-0724,0828,12297,029.6,045.5,0.252,754.6,01.17,0.508
2016-06-25 02:19:00,2102E-3,5C000400,-0724,0829,12156,029.6,045.5,0.252,754.5,01.17,0.508
2016-06-25 02:20:00,2084E-3,5C000400,-0724,0828,12076,029.6,045.5,0.251,754.6,01.17,0.508
2016-06-25 02:21:00,1988E-3,5C000400,-0724,0829,12208,029.6,045.5,0.252,754.6,01.17,0.508
2016-06-25 02:22:00,2042E-3,5C000400,-0724,0828,12351,029.6,045.5,0.252,754.6,01.17,0.508
2016-06-25 02:23:00,2156E-3,5C000400,-0724,0827,12148,029.6,045.5,0.252,754.6,01.17,0.508
2016-06-25 02:24:00,2032E-3,5C000400,-0724,0827,12051,029.6,045.5,0.252,754.6,01.17,0.508
2016-06-25 02:25:00,2010E-3,5C000400,-0724,0828,12193,029.5,045.5,0.252,754.6,01.17,0.508
2016-06-25 02:26:00,2171E-3,5C000400,-0724,0829,12172,029.5,045.5,0.252,754.6,01.17,0.508
2016-06-25 02:27:00,2107E-3,5C000400,-0724,0829,12234,029.5,045.5,0.252,754.6,01.17,0.508
2016-06-25 02:28:00,2098E-3,5C000400,-0724,0828,12258,029.5,045.5,0.252,754.6,01.17,0.508
2016-06-25 02:29:00,2037E-3,5C000400,-0724,0828,12301,029.5,045.5,0.252,754.6,01.17,0.508
2016-06-25 02:30:00,2185E-3,5C000400,-0724,0828,12223,029.5,045.5,0.252,754.7,01.17,0.508
2016-06-25 02:31:00,2262E-3,5C000400,-0724,0828,12003,029.5,045.5,0.252,754.7,01.17,0.508
2016-06-25 02:32:00,1998E-3,5C000400,-0724,0828,12135,029.4,045.5,0.252,754.7,01.17,0.508
2016-06-25 02:33:00,2189E-3,5C000400,-0724,0829,12129,029.5,045.5,0.252,754.7,01.17,0.508
2016-06-25 02:34:00,2171E-3,5C000400,-0724,0829,12341,029.4,045.5,0.252,754.7,01.17,0.508
2016-06-25 02:35:00,2041E-3,5C000400,-0724,0827,12262,029.4,045.5,0.252,754.7,01.17,0.508
2016-06-25 02:36:00,2227E-3,5C000400,-0724,0828,12184,029.4,045.5,0.252,754.7,01.17,0.508
2016-06-25 02:37:00,2157E-3,5C000400,-0724,0828,12197,029.4,045.5,0.252,754.7,01.17,0.508
2016-06-25 02:38:00,2098E-3,5C000400,-0724,0827,12253,029.4,045.5,0.252,754.7,01.17,0.508
2016-06-25 02:39:00,2157E-3,5C000400,-0724,0828,12051,029.4,045.5,0.252,754.7,01.17,0.508
2016-06-25 02:40:00,2081E-3,5C000400,-0724,0828,12238,029.4,045.5,0.252,754.7,01.17,0.508
2016-06-25 02:41:00,2030E-3,5C000400,-0724,0827,12231,029.4,045.5,0.252,754.7,01.17,0.508
2016-06-25 02:42:00,2178E-3,5C000400,-0724,0828,12039,029.4,045.5,0.252,754.7,01.17,0.508
2016-06-25 02:43:00,2040E-3,5C000400,-0724,0828,12212,029.4,045.5,0.252,754.7,01.17,0.508
2016-06-25 02:44:00,2135E-3,5C000400,-0724,0828,12340,029.4,045.5,0.252,754.7,01.17,0.508
2016-06-25 02:45:00,2013E-3,5C000400,-0724,0826,12096,029.4,045.5,0.252,754.7,01.17,0.508
2016-06-25 02:46:00,2043E-3,5C000400,-0724,0828,12266,029.4,045.5,0.252,754.7,01.17,0.508
2016-06-25 02:47:00,2235E-3,5C000400,-0724,0828,12230,029.4,045.5,0.252,754.7,01.17,0.508
2016-06-25 02:48:00,2003E-3,5C000400,-0724,0829,12112,029.4,045.5,0.252,754.7,01.17,0.508
2016-06-25 02:49:00,2109E-3,5C000400,-0724,0828,12227,029.3,045.5,0.252,754.7,01.17,0.508
2016-06-25 02:50:00,2244E-3,5C000400,-0724,0827,12216,029.4,045.5,0.252,754.6,01.17,0.508
2016-06-25 02:51:00,2082E-3,5C000400,-0724,0828,12175,029.4,045.5,0.252,754.7,01.17,0.508
2016-06-25 02:52:00,2049E-3,5C000400,-0724,0828,12083,029.3,045.5,0.252,754.7,01.17,0.508
2016-06-25 02:53:00,2123E-3,5C000400,-0724,0828,12144,029.3,045.5,0.252,754.7,01.17,0.508
2016-06-25 02:54:00,2129E-3,5C000400,-0724,0828,12218,029.3,045.5,0.252,754.7,01.17,0.508
2016-06-25 02:55:00,2101E-3,5C000400,-0724,0828,12131,029.3,045.5,0.252,754.7,01.17,0.508
2016-06-25 02:56:00,2175E-3,5C000400,-0724,0828,12223,029.3,045.5,0.253,754.6,01.17,0.508
2016-06-25 02:57:00,1976E-3,5C000400,-0724,0827,12105,029.3,045.5,0.253,754.6,01.17,0.508
2016-06-25 02:58:00,2114E-3,5C000400,-0724,0828,12288,029.2,045.5,0.253,754.6,01.17,0.508
2016-06-25 02:59:00,2188E-3,5C000400,-0724,0827,12305,029.3,045.5,0.252,754.6,01.17,0.508
2016-06-25 03:00:00,2023E-3,5C000400,-0724,0827,12227,029.3,045.5,0.252,754.7,01.17,0.508
2016-06-25 03:01:00,2007E-3,5C000400,-0724,0827,12239,029.3,045.5,0.252,754.6,01.17,0.508
2016-06-25 03:02:00,2184E-3,5C000400,-0724,0828,12226,029.3,045.5,0.252,754.7,01.17,0.508
2016-06-25 03:03:00,2166E-3,5C000400,-0724,0828,12118,029.3,045.5,0.253,754.7,01.17,0.508
2016-06-25 03:04:00,2073E-3,5C000400,-0724,0827,12179,029.3,045.5,0.252,754.7,01.17,0.508
2016-06-25 03:05:00,2013E-3,5C000400,-0724,0828,12068,029.3,045.5,0.252,754.8,01.17,0.508
2016-06-25 03:06:00,2094E-3,5C000400,-0724,0827,12205,029.2,045.5,0.252,754.7,01.17,0.508
2016-06-25 03:07:00,2191E-3,5C000400,-0724,0828,12242,029.3,045.5,0.252,754.7,01.17,0.508
2016-06-25 03:08:00,1946E-3,5C000400,-0724,0828,12222,029.2,045.5,0.252,754.8,01.17,0.508
2016-06-25 03:09:00,2086E-3,5C000400,-0724,0828,12295,029.2,045.5,0.253,754.8,01.17,0.508
2016-06-25 03:10:00,2098E-3,5C000400,-0724,0828,12199,029.2,045.5,0.253,754.8,01.17,0.508
2016-06-25 03:11:00,1963E-3,5C000400,-0724,0828,12217,029.2,045.5,0.252,754.8,01.17,0.508
2016-06-25 03:12:00,2094E-3,5C000400,-0724,0828,12126,029.2,045.5,0.252,754.7,01.17,0.508
2016-06-25 03:13:00,2098E-3,5C000400,-0724,0828,12195,029.2,045.5,0.252,754.8,01.17,0.508
2016-06-25 03:14:00,2115E-3,5C000400,-0724,0827,12121,029.2,045.5,0.252,754.8,01.17,0.508
2016-06-25 03:15:00,2161E-3,5C000400,-0724,0828,12290,029.2,045.5,0.252,754.8,01.17,0.508
2016-06-25 03:16:00,2095E-3,5C000400,-0724,0829,12302,029.2,045.5,0.253,754.8,01.17,0.508
2016-06-25 03:17:00,2129E-3,5C000400,-0724,0828,12133,029.2,045.5,0.253,754.8,01.17,0.508
2016-06-25 03:18:00,2121E-3,5C000400,-0724,0827,12172,029.3,045.5,0.252,754.7,01.17,0.508
2016-06-25 03:19:00,2046E-3,5C000400,-0724,0827,12170,029.3,045.5,0.252,754.7,01.17,0.508
2016-06-25 03:20:00,2146E-3,5C000400,-0724,0828,12219,029.2,045.5,0.252,754.8,01.17,0.508
2016-06-25 03:21:00,2201E-3,5C000400,-0724,0828,12123,029.2,045.5,0.252,754.7,01.17,0.508
2016-06-25 03:22:00,2125E-3,5C000400,-0724,0828,12225,029.2,045.5,0.253,754.7,01.17,0.508
2016-06-25 03:23:00,2243E-3,5C000400,-0724,0828,12100,029.2,045.5,0.253,754.8,01.17,0.508
2016-06-25 03:24:00,2148E-3,5C000400,-0724,0829,12112,029.2,045.5,0.253,754.8,01.17,0.508
2016-06-25 03:25:00,1965E-3,5C000400,-0724,0828,12187,029.2,045.5,0.253,754.8,01.17,0.508
2016-06-25 03:26:00,2203E-3,5C000400,-0724,0828,12306,029.2,045.5,0.252,754.7,01.17,0.508
2016-06-25 03:27:00,1997E-3,5C000400,-0724,0828,12250,029.2,045.5,0.252,754.8,01.17,0.508
2016-06-25 03:28:00,2158E-3,5C000400,-0724,0827,12048,029.2,045.5,0.252,754.8,01.17,0.508
2016-06-25 03:29:00,2048E-3,5C000400,-0724,0827,12152,029.2,045.5,0.252,754.7,01.17,0.508
2016-06-25 03:30:00,2132E-3,5C000400,-0724,0828,12238,029.1,045.5,0.253,754.8,01.17,0.508
2016-06-25 03:31:00,2115E-3,5C000400,-0724,0828,12209,029.2,045.5,0.253,754.8,01.17,0.508
2016-06-25 03:32:00,2103E-3,5C000400,-0724,0828,12192,029.1,045.5,0.253,754.8,01.17,0.508
2016-06-25 03:33:00,2155E-3,5C000400,-0724,0828,12103,029.1,045.5,0.253,754.8,01.17,0.508
2016-06-25 03:34:00,2160E-3,5C000400,-0724,0828,12159,029.1,045.5,0.253,754.8,01.17,0.508
2016-06-25 03:35:00,2101E-3,5C000400,-0724,0828,12121,029.1,045.5,0.253,754.8,01.17,0.508
2016-06-25 03:36:00,2101E-3,5C000400,-0724,0829,12332,029.1,045.5,0.252,754.8,01.17,0.508
2016-06-25 03:37:00,2129E-3,5C000400,-0724,0828,12155,029.2,045.5,0.252,754.8,01.17,0.508
2016-06-25 03:38:00,1977E-3,5C000400,-0724,0828,12251,029.1,045.5,0.252,754.8,01.17,0.508
2016-06-25 03:39:00,2124E-3,5C000400,-0724,0828,12258,029.1,045.5,0.253,754.8,01.17,0.508
2016-06-25 03:40:00,2088E-3,5C000400,-0724,0828,12212,029.1,045.5,0.253,754.8,01.17,0.508
2016-06-25 03:41:00,2175E-3,5C000400,-0724,0828,12204,029.1,045.5,0.253,754.8,01.17,0.508
2016-06-25 03:42:00,2084E-3,5C000400,-0724,0827,12215,029.1,045.5,0.253,754.8,01.17,0.508
2016-06-25 03:43:00,2133E-3,5C000400,-0724,0827,12051,029.1,045.5,0.253,754.8,01.17,0.508
2016-06-25 03:44:00,2166E-3,5C000400,-0724,0828,12278,029.1,045.5,0.253,754.8,01.17,0.508
2016-06-25 03:45:00,2113E-3,5C000400,-0724,0828,12289,029.1,045.5,0.252,754.8,01.17,0.508
2016-06-25 03:46:00,2044E-3,5C000400,-0724,0828,12278,029.1,045.5,0.252,754.8,01.17,0.508
2016-06-25 03:47:00,2021E-3,5C000400,-0724,0827,12201,029.1,045.5,0.252,754.8,01.17,0.508
2016-06-25 03:48:00,2101E-3,5C000400,-0724,0828,12207,029.1,045.5,0.253,754.8,01.17,0.508
2016-06-25 03:49:00,2037E-3,5C000400,-0724,0828,12174,029.1,045.5,0.253,754.8,01.17,0.508
2016-06-25 03:50:00,2135E-3,5C000400,-0724,0828,12222,029.1,045.5,0.253,754.8,01.17,0.508
2016-06-25 03:51:00,2046E-3,5C000400,-0724,0828,12251,029.1,045.5,0.253,754.8,01.17,0.508
2016-06-25 03:52:00,2199E-3,5C000400,-0724,0827,12066,029.1,045.5,0.253,754.8,01.17,0.508
2016-06-25 03:53:00,2173E-3,5C000400,-0724,0829,12308,029.1,045.5,0.253,754.9,01.17,0.508
2016-06-25 03:54:00,2069E-3,5C000400,-0724,0828,12042,029.1,045.5,0.253,754.9,01.17,0.508
2016-06-25 03:55:00,2075E-3,5C000400,-0724,0828,12267,029.1,045.5,0.253,754.9,01.17,0.508
2016-06-25 03:56:00,2012E-3,5C000400,-0724,0828,12184,029.1,045.5,0.253,754.8,01.17,0.508
2016-06-25 03:57:00,2096E-3,5C000400,-0724,0828,12340,029.1,045.5,0.253,754.9,01.17,0.508
2016-06-25 03:58:00,2122E-3,5C000400,-0724,0827,12120,029.0,045.5,0.253,754.8,01.17,0.508
2016-06-25 03:59:00,2067E-3,5C000400,-0724,0828,12230,029.0,045.5,0.253,754.9,01.17,0.508
2016-06-25 04:00:00,2114E-3,5C000400,-0724,0828,12316,029.0,045.5,0.252,754.9,01.17,0.508
2016-06-25 04:01:00,2091E-3,5C000400,-0724,0828,12271,029.0,045.5,0.252,754.9,01.17,0.508
2016-06-25 04:02:00,1947E-3,5C000400,-0724,0828,12093,029.0,045.5,0.252,754.9,01.17,0.508
2016-06-25 04:03:00,2151E-3,5C000400,-0724,0828,12356,029.1,045.5,0.253,754.9,01.17,0.508
2016-06-25 04:04:00,2064E-3,5C000400,-0724,0828,12251,029.0,045.5,0.253,754.9,01.17,0.508
2016-06-25 04:05:00,1924E-3,5C000400,-0724,0828,12233,029.0,045.5,0.253,754.9,01.17,0.508
2016-06-25 04:06:00,2138E-3,5C000400,-0724,0828,12286,029.0,045.5,0.253,754.9,01.17,0.508
2016-06-25 04:07:00,2184E-3,5C000400,-0724,0828,12174,029.0,045.5,0.253,754.8,01.17,0.508
2016-06-25 04:08:00,2213E-3,5C000400,-0724,0827,12210,029.0,045.5,0.253,754.9,01.17,0.508
2016-06-25 04:09:00,2026E-3,5C000400,-0724,0827,12255,029.0,045.5,0.253,754.9,01.17,0.508
2016-06-25 04:10:00,2037E-3,5C000400,-0724,0828,11992,029.0,045.5,0.253,754.9,01.17,0.508
2016-06-25 04:11:00,2184E-3,5C000400,-0724,0828,12165,029.0,045.5,0.253,754.9,01.17,0.508
2016-06-25 04:12:00,2174E-3,5C000400,-0724,0828,12133,029.0,045.5,0.253,754.9,01.17,0.508
2016-06-25 04:13:00,2139E-3,5C000400,-0724,0828,12191,029.0,045.5,0.252,754.9,01.17,0.508
2016-06-25 04:14:00,2035E-3,5C000400,-0724,0827,12265,029.0,045.5,0.253,754.8,01.17,0.508
2016-06-25 04:15:00,2106E-3,5C000400,-0724,0827,12259,029.0,045.5,0.253,754.9,01.17,0.508
2016-06-25 04:16:00,2154E-3,5C000400,-0724,0827,12044,029.0,045.5,0.253,755.0,01.17,0.508
2016-06-25 04:17:00,2094E-3,5C000400,-0724,0828,12177,029.0,045.5,0.253,754.9,01.17,0.508
2016-06-25 04:18:00,2128E-3,5C000400,-0724,0828,12119,029.0,045.5,0.253,755.0,01.17,0.508
2016-06-25 04:19:00,2055E-3,5C000400,-0724,0828,12263,029.0,045.5,0.253,755.0,01.17,0.508
2016-06-25 04:20:00,2107E-3,5C000400,-0724,0828,12105,029.0,045.5,0.253,754.9,01.17,0.508